Flag for Gaza Strip Weather past 2 weeks in Gaza, Gaza Strip

Now
64 °F

Passing clouds.


Feels Like: 64 °F
Forecast: 57 / 67 °F
Wind: 1 mph from North

Location: Ben Gurion International Airport

Current Time: Dec 20, 2014 at 10:03:28 AM

Latest Report: Dec 20, 2014 at 9:20 AM


Visibility: N/A

Pressure: 30.12 "Hg

Humidity: 78%

Dew point: 57 °F

Location of GazaLocation

Historic Weather in Gaza — Graph

°F

Gaza temperature yesterday

Maximum temperature yesterday: 66 °F (at 12:50 PM)
Minimum temperature yesterday: 55 °F (at 4:50 AM)
Average temperature yesterday: 60 °F

Past Weeks' High & Low Weather Summary

 TemperatureHumidityPressure
High79 °F (Dec 5, 12:20 PM)94% (Dec 8, 3:50 AM)30.24 "Hg (Dec 8, 3:50 AM)
Low48 °F (Dec 16, 6:20 AM)35% (Dec 13, 11:50 AM)29.77 "Hg (Dec 9, 1:50 AM)
Average63 °F71%30.06 "Hg
* Reported Dec 5 8:20 AM — Dec 20 8:50 AM, Gaza, Weather by CustomWeather, © 2014

Note: Actual official high and low records may vary slightly from our data, if they occured in-between our weather recording intervals... More about our weather records

Advertising

Gaza weather history for previous 24 hours

 ConditionsComfort  
Time TempWeatherWind HumidityBarometerVisibility
8:50 AM
Dec 20
59 °FPassing clouds.2 mph88%30.12 "HgN/A
8:20 AM57 °FPassing clouds.3 mph88%30.12 "HgN/A
7:50 AM55 °FPassing clouds.5 mph94%30.12 "Hg6 mi
7:20 AM54 °FPassing clouds.5 mph94%30.12 "Hg5 mi
6:50 AM54 °FPassing clouds.2 mph94%30.12 "Hg5 mi
6:20 AM54 °FPassing clouds.2 mph94%30.12 "Hg6 mi
5:50 AM54 °FPassing clouds.2 mph94%30.09 "Hg6 mi
5:20 AM54 °FPassing clouds.2 mph94%30.09 "Hg5 mi
4:50 AM55 °FPassing clouds.3 mph94%30.09 "Hg6 mi
4:20 AM55 °FPassing clouds.2 mph94%30.09 "Hg6 mi
3:50 AM57 °FPassing clouds.3 mph88%30.09 "Hg5 mi
3:20 AM57 °FPassing clouds.3 mph88%30.09 "Hg4 mi
2:50 AM57 °FPassing clouds.1 mph88%30.09 "Hg4 mi
2:20 AM57 °FPassing clouds.1 mph88%30.09 "Hg4 mi
1:50 AM57 °FPassing clouds.3 mph88%30.09 "Hg4 mi
1:20 AM57 °FPassing clouds.3 mph88%30.09 "Hg4 mi
12:50 AM59 °FPartly cloudy.2 mph82%30.09 "Hg4 mi
12:20 AM59 °FPassing clouds.3 mph88%30.09 "Hg4 mi
11:50 PM
Dec 19
59 °FPassing clouds.3 mph88%30.12 "Hg4 mi
11:20 PM59 °FHaze.3 mph88%30.12 "Hg3 mi
10:50 PM59 °FHaze.5 mph88%30.12 "Hg3 mi
10:20 PM59 °FHaze.2 mph88%30.12 "Hg3 mi
9:50 PM59 °FHaze.1 mph88%30.12 "Hg3 mi
9:20 PM59 °FHaze.1 mph94%30.09 "Hg3 mi
8:50 PM59 °FPassing clouds.3 mph94%30.09 "Hg4 mi
8:20 PM59 °FPassing clouds.2 mph88%30.09 "Hg4 mi
7:50 PM59 °FPassing clouds.3 mph88%30.09 "Hg4 mi
7:20 PM61 °FPassing clouds.3 mph88%30.09 "Hg4 mi
6:50 PM61 °FPassing clouds.5 mph88%30.09 "Hg4 mi
6:20 PM63 °FPassing clouds.5 mph83%30.09 "Hg4 mi
5:50 PM63 °FPassing clouds.1 mph83%30.09 "Hg4 mi
5:20 PM63 °FPassing clouds.3 mph83%30.07 "Hg4 mi
4:50 PM64 °FPassing clouds.3 mph78%30.07 "Hg4 mi
4:20 PM64 °FScattered clouds.3 mph78%30.07 "Hg4 mi
3:50 PM64 °FScattered clouds.3 mph78%30.07 "Hg4 mi
3:20 PM64 °FScattered clouds.2 mph78%30.07 "Hg4 mi
2:50 PM64 °FScattered clouds.1 mph73%30.07 "Hg5 mi
2:20 PM64 °FLight rain. Passing clouds.6 mph73%30.07 "Hg6 mi
1:50 PM66 °FPassing clouds.5 mph68%30.07 "Hg6 mi
1:20 PM66 °FSunny.6 mph68%30.07 "Hg10 mi
12:50 PM66 °FSunny.7 mph68%30.07 "Hg10 mi
12:20 PM64 °FSunny.7 mph68%30.07 "Hg10 mi
11:50 AM64 °FSunny.7 mph68%30.07 "Hg10 mi
11:20 AM64 °FSunny.7 mph68%30.09 "Hg10 mi
10:50 AM64 °FSunny.7 mph64%30.09 "Hg10 mi
10:20 AM64 °FSunny.6 mph68%30.09 "Hg10 mi
Weather by CustomWeather, © 2014

See weather overviewHow to use our weather pages